DLH99E EDDF-LPPD

Flight info

Callsign DLH99E
Flight time N/A
Altitude 35000
Route SOBRA1F SOBRA Y180 DIK UN857 TOLVU DCT RAPOR DCT ESTOC DCT PON DCT DITAL DCT GODIX DCT DIDAK DCT KURIS DCT TERPO UN872 ERIGA UN741 AZFIC DCT LOTEE DCT PETEK DCT ERPES/M076F350 DCT LENSI DCT OMOBI
Aircraft A320/M-SDE2E3FGIJ1LORWXYZ/HB1

Departure

Time 2026-05-07 04:15
Airport Frankfurt Main Airport (EDDF)

Arrival

Time N/A
Airport João Paulo II Airport (LPPD)
Time Latitude Longitude Altitude Speed Heading
2026-05-07 03:42 50.04763 8.57729 361 ft 0 kts 270°
2026-05-07 04:07 50.04762 8.57764 358 ft 4 kts 272°
2026-05-07 04:07 50.04762 8.57805 360 ft 2 kts 268°
2026-05-07 04:07 50.04763 8.57838 359 ft 4 kts 264°
2026-05-07 04:08 50.04766 8.57879 357 ft 4 kts 259°
2026-05-07 04:08 50.04772 8.57920 359 ft 4 kts 255°
2026-05-07 04:08 50.04779 8.57960 359 ft 4 kts 251°
2026-05-07 04:08 50.04789 8.58000 365 ft 4 kts 248°
2026-05-07 04:09 50.04799 8.58039 361 ft 4 kts 249°
2026-05-07 04:09 50.04801 8.58046 362 ft 0 kts 250°
2026-05-07 04:10 50.04789 8.58009 357 ft 4 kts 236°
2026-05-07 04:10 50.04772 8.57980 360 ft 5 kts 225°
2026-05-07 04:11 50.04716 8.57954 362 ft 9 kts 165°
2026-05-07 04:11 50.04662 8.57988 363 ft 7 kts 158°
2026-05-07 04:11 50.04625 8.58010 362 ft 4 kts 159°
2026-05-07 04:11 50.04606 8.58021 361 ft 4 kts 159°
2026-05-07 04:12 50.04562 8.58045 364 ft 5 kts 161°
2026-05-07 04:12 50.04548 8.58052 364 ft 0 kts 160°
2026-05-07 04:12 50.04532 8.58061 366 ft 7 kts 160°
2026-05-07 04:12 50.04458 8.58103 366 ft 12 kts 159°
2026-05-07 04:13 50.04409 8.58130 370 ft 6 kts 165°
2026-05-07 04:13 50.04368 8.58087 366 ft 5 kts 245°
2026-05-07 04:13 50.04368 8.58086 366 ft 0 kts 246°
2026-05-07 04:15 50.04314 8.57862 364 ft 58 kts 250°
2026-05-07 04:15 50.04097 8.56951 362 ft 119 kts 249°
2026-05-07 04:15 50.03747 8.55497 369 ft 164 kts 254°
2026-05-07 04:15 50.03364 8.53856 1020 ft 160 kts 252°
2026-05-07 04:16 50.02981 8.52223 1719 ft 164 kts 253°
2026-05-07 04:16 50.02329 8.50646 2054 ft 190 kts 220°
2026-05-07 04:16 50.01058 8.49708 2280 ft 216 kts 202°
2026-05-07 04:16 49.99583 8.48924 2676 ft 231 kts 202°
2026-05-07 04:17 49.98553 8.48372 3197 ft 232 kts 201°
2026-05-07 04:17 49.97049 8.47562 3945 ft 232 kts 201°
2026-05-07 04:17 49.95513 8.46702 4648 ft 240 kts 207°
2026-05-07 04:17 49.94167 8.45067 4996 ft 256 kts 236°
2026-05-07 04:18 49.93516 8.42498 5659 ft 260 kts 264°
2026-05-07 04:18 49.93328 8.39688 6451 ft 263 kts 265°
2026-05-07 04:18 49.93150 8.36844 7197 ft 267 kts 266°
2026-05-07 04:18 49.92967 8.33960 7956 ft 270 kts 266°
2026-05-07 04:19 49.92779 8.31035 8735 ft 274 kts 266°
2026-05-07 04:19 49.92588 8.28080 9501 ft 277 kts 267°
2026-05-07 04:19 49.92393 8.25081 10180 ft 284 kts 267°
2026-05-07 04:19 49.92189 8.21913 10386 ft 307 kts 267°
2026-05-07 04:20 49.91970 8.18514 10681 ft 324 kts 266°
2026-05-07 04:20 49.91736 8.15005 11272 ft 330 kts 266°
2026-05-07 04:20 49.91495 8.11440 11916 ft 335 kts 266°
2026-05-07 04:21 49.90995 8.04157 13181 ft 344 kts 265°
2026-05-07 04:21 49.90738 8.00445 13805 ft 348 kts 265°
2026-05-07 04:21 49.90481 7.96692 14373 ft 352 kts 265°
2026-05-07 04:21 49.90296 7.94008 14796 ft 353 kts 265°
2026-05-07 04:22 49.90029 7.90205 15395 ft 356 kts 265°
2026-05-07 04:22 49.89762 7.86383 15986 ft 358 kts 265°
2026-05-07 04:22 49.89492 7.82530 16575 ft 361 kts 264°
2026-05-07 04:22 49.89224 7.78692 17148 ft 363 kts 264°
2026-05-07 04:23 49.88954 7.74787 17740 ft 366 kts 264°
2026-05-07 04:23 49.88681 7.70856 18316 ft 368 kts 264°
2026-05-07 04:23 49.88403 7.66901 18812 ft 370 kts 264°
2026-05-07 04:23 49.88120 7.62922 19294 ft 373 kts 264°
2026-05-07 04:24 49.87831 7.58916 19769 ft 375 kts 264°
2026-05-07 04:24 49.87540 7.54883 20242 ft 378 kts 264°
2026-05-07 04:24 49.87247 7.50828 20715 ft 380 kts 264°
2026-05-07 04:24 49.86951 7.46743 21169 ft 383 kts 264°
2026-05-07 04:25 49.86649 7.42632 21606 ft 385 kts 264°
2026-05-07 04:25 49.86343 7.38495 22070 ft 388 kts 264°
2026-05-07 04:25 49.86034 7.34329 22511 ft 390 kts 264°
2026-05-07 04:25 49.85720 7.30138 22952 ft 393 kts 264°
2026-05-07 04:26 49.85405 7.25922 23371 ft 395 kts 264°
2026-05-07 04:26 49.85089 7.21691 23804 ft 396 kts 264°
2026-05-07 04:26 49.84774 7.17448 24191 ft 397 kts 264°
2026-05-07 04:26 49.84457 7.13185 24543 ft 399 kts 264°
2026-05-07 04:27 49.84135 7.08903 24878 ft 401 kts 263°
2026-05-07 04:27 49.83806 7.04594 25213 ft 404 kts 263°
2026-05-07 04:27 49.83473 7.00270 25546 ft 406 kts 263°
2026-05-07 04:27 49.83136 6.95912 25877 ft 408 kts 263°
2026-05-07 04:28 49.82796 6.91543 26226 ft 410 kts 263°
2026-05-07 04:28 49.82453 6.87161 26546 ft 412 kts 263°
2026-05-07 04:28 49.82107 6.82733 26854 ft 414 kts 263°
2026-05-07 04:28 49.81758 6.78309 27174 ft 416 kts 263°
2026-05-07 04:29 49.81404 6.73854 27503 ft 418 kts 263°
2026-05-07 04:29 49.81050 6.69431 27811 ft 420 kts 263°
2026-05-07 04:29 49.80691 6.64936 28107 ft 422 kts 263°
2026-05-07 04:29 49.80330 6.60429 28416 ft 424 kts 263°
2026-05-07 04:30 49.79964 6.55895 28719 ft 426 kts 263°
2026-05-07 04:30 49.79593 6.51329 29028 ft 428 kts 263°
2026-05-07 04:30 49.79222 6.46751 29310 ft 430 kts 263°
2026-05-07 04:30 49.78846 6.42145 29582 ft 432 kts 263°
2026-05-07 04:31 49.78465 6.37529 29857 ft 434 kts 263°
2026-05-07 04:31 49.78080 6.32891 30103 ft 435 kts 263°
2026-05-07 04:31 49.77693 6.28240 30342 ft 437 kts 263°
2026-05-07 04:31 49.77303 6.23574 30556 ft 438 kts 263°
2026-05-07 04:32 49.76908 6.18899 30826 ft 438 kts 262°
2026-05-07 04:32 49.76511 6.14228 31117 ft 438 kts 262°
2026-05-07 04:32 49.76340 6.12216 31241 ft 438 kts 262°
2026-05-07 04:32 49.75996 6.08141 31488 ft 438 kts 263°
2026-05-07 04:33 49.75600 6.03471 31764 ft 438 kts 263°
2026-05-07 04:33 49.75200 5.98802 32046 ft 438 kts 262°
2026-05-07 04:33 49.74793 5.94129 32321 ft 438 kts 262°
2026-05-07 04:33 49.74377 5.89465 32593 ft 438 kts 261°
2026-05-07 04:34 49.73677 5.84881 32860 ft 439 kts 252°
2026-05-07 04:34 49.72717 5.80561 33113 ft 439 kts 251°
2026-05-07 04:34 49.71695 5.76110 33385 ft 439 kts 251°
2026-05-07 04:34 49.70658 5.71672 33674 ft 439 kts 250°
2026-05-07 04:35 49.69611 5.67239 33959 ft 439 kts 250°
2026-05-07 04:35 49.68563 5.62812 34192 ft 439 kts 250°
2026-05-07 04:35 49.67532 5.58446 34428 ft 439 kts 250°
2026-05-07 04:35 49.66490 5.54022 34654 ft 438 kts 250°
2026-05-07 04:36 49.65452 5.49605 34871 ft 438 kts 250°
2026-05-07 04:36 49.64413 5.45188 34972 ft 437 kts 250°
2026-05-07 04:36 49.62349 5.36428 35007 ft 433 kts 251°
2026-05-07 04:37 49.60415 5.27643 34992 ft 432 kts 252°
2026-05-07 04:37 49.58728 5.18760 35010 ft 431 kts 258°
2026-05-07 04:38 49.57420 5.09727 35000 ft 432 kts 257°
2026-05-07 04:38 49.56050 5.00715 34998 ft 432 kts 257°
2026-05-07 04:39 49.54669 4.91723 34998 ft 431 kts 257°
2026-05-07 04:39 49.53284 4.82738 35002 ft 431 kts 257°
2026-05-07 04:40 49.51906 4.73826 35002 ft 431 kts 257°
2026-05-07 04:40 49.50508 4.64852 34998 ft 431 kts 257°
2026-05-07 04:41 49.49110 4.55889 35015 ft 431 kts 257°
2026-05-07 04:41 49.47708 4.46932 34990 ft 431 kts 257°
2026-05-07 04:42 49.46294 4.37983 34992 ft 431 kts 257°
2026-05-07 04:42 49.44868 4.29035 34994 ft 431 kts 257°
2026-05-07 04:43 49.43446 4.20092 34998 ft 431 kts 257°
2026-05-07 04:43 49.42011 4.11146 35000 ft 431 kts 257°
2026-05-07 04:44 49.40567 4.02208 35002 ft 431 kts 257°
2026-05-07 04:44 49.39118 3.93270 35010 ft 432 kts 257°
2026-05-07 04:45 49.37663 3.84332 35016 ft 432 kts 257°
2026-05-07 04:45 49.36198 3.75400 35018 ft 432 kts 257°
2026-05-07 04:46 49.34732 3.66464 35023 ft 432 kts 257°
2026-05-07 04:46 49.33257 3.57544 35026 ft 431 kts 256°
2026-05-07 04:47 49.31769 3.48622 35020 ft 431 kts 257°
2026-05-07 04:47 49.30272 3.39712 35020 ft 432 kts 256°
2026-05-07 04:48 49.28781 3.30871 35023 ft 432 kts 257°
2026-05-07 04:48 49.27278 3.21918 35024 ft 432 kts 256°
2026-05-07 04:49 49.25781 3.13074 35029 ft 432 kts 256°
2026-05-07 04:49 49.24263 3.04191 35032 ft 431 kts 256°
2026-05-07 04:50 49.22739 2.95322 35033 ft 431 kts 256°
2026-05-07 04:50 49.21207 2.86459 35035 ft 431 kts 256°
2026-05-07 04:51 49.19671 2.77605 35036 ft 431 kts 256°
2026-05-07 04:51 49.18136 2.68751 35035 ft 431 kts 256°
2026-05-07 04:52 49.16583 2.59918 35042 ft 430 kts 256°
2026-05-07 04:52 49.15020 2.51098 35050 ft 429 kts 256°
2026-05-07 04:53 49.13464 2.42306 35048 ft 428 kts 256°
2026-05-07 04:53 49.12399 2.33391 35048 ft 427 kts 263°
2026-05-07 04:54 49.11576 2.24416 35044 ft 427 kts 263°
2026-05-07 04:54 49.10732 2.15450 35043 ft 427 kts 262°
2026-05-07 04:55 49.09866 2.06497 35044 ft 426 kts 259°
2026-05-07 04:55 49.07932 1.97964 35044 ft 427 kts 246°
2026-05-07 04:56 49.05467 1.89816 35038 ft 427 kts 246°
2026-05-07 04:56 49.02987 1.81582 35053 ft 427 kts 246°
2026-05-07 04:57 49.00504 1.73357 35049 ft 427 kts 246°
2026-05-07 04:57 48.98018 1.65155 35051 ft 426 kts 246°
2026-05-07 04:58 48.95528 1.56972 35043 ft 426 kts 246°
2026-05-07 04:58 48.93032 1.48812 35043 ft 425 kts 246°
2026-05-07 04:59 48.90546 1.40712 35042 ft 425 kts 246°
2026-05-07 04:59 48.88044 1.32574 35040 ft 425 kts 246°
2026-05-07 05:00 48.85521 1.24406 35046 ft 424 kts 246°
2026-05-07 05:00 48.83027 1.16366 35046 ft 424 kts 246°
2026-05-07 05:01 48.80525 1.08284 35056 ft 423 kts 246°
2026-05-07 05:01 48.78021 1.00215 35054 ft 423 kts 246°
2026-05-07 05:02 48.75502 0.92166 35059 ft 423 kts 245°
2026-05-07 05:02 48.72647 0.84375 35060 ft 423 kts 239°
2026-05-07 05:03 48.69566 0.76777 35062 ft 423 kts 239°
2026-05-07 05:03 48.66487 0.69186 35062 ft 423 kts 239°
2026-05-07 05:04 48.63924 0.62883 35045 ft 423 kts 239°
2026-05-07 05:04 48.60813 0.55264 35047 ft 423 kts 239°
2026-05-07 05:05 48.57721 0.47695 35049 ft 423 kts 239°
2026-05-07 05:05 48.54622 0.40137 35049 ft 423 kts 239°
2026-05-07 05:06 48.51519 0.32590 35052 ft 423 kts 239°
2026-05-07 05:06 48.48441 0.25122 35053 ft 422 kts 239°
2026-05-07 05:07 48.45336 0.17600 35051 ft 422 kts 239°
2026-05-07 05:07 48.42225 0.10102 35048 ft 422 kts 239°
2026-05-07 05:08 48.39110 0.02612 35042 ft 422 kts 239°
2026-05-07 05:08 48.35986 -0.04866 35049 ft 422 kts 238°
2026-05-07 05:09 48.32581 -0.12077 35053 ft 423 kts 234°
2026-05-07 05:09 48.28987 -0.19069 35057 ft 423 kts 233°
2026-05-07 05:10 48.25416 -0.26075 35053 ft 422 kts 234°
2026-05-07 05:10 48.21860 -0.33089 35051 ft 422 kts 234°
2026-05-07 05:11 48.18293 -0.40081 35041 ft 422 kts 233°
2026-05-07 05:11 48.14717 -0.47055 35043 ft 422 kts 233°
2026-05-07 05:12 48.11138 -0.54017 35033 ft 422 kts 233°
2026-05-07 05:12 48.07552 -0.60966 35032 ft 422 kts 233°
2026-05-07 05:13 48.03971 -0.67911 35028 ft 422 kts 233°
2026-05-07 05:13 48.00387 -0.74847 35019 ft 422 kts 233°
2026-05-07 05:14 47.96791 -0.81779 35020 ft 422 kts 233°
2026-05-07 05:14 47.93194 -0.88695 35027 ft 422 kts 233°
2026-05-07 05:15 47.89592 -0.95589 35030 ft 421 kts 233°
2026-05-07 05:15 47.85994 -1.02478 35036 ft 421 kts 233°
2026-05-07 05:16 47.82396 -1.09355 35030 ft 421 kts 233°
2026-05-07 05:16 47.78788 -1.16214 35026 ft 421 kts 233°
2026-05-07 05:17 47.75177 -1.23069 35020 ft 421 kts 233°
2026-05-07 05:17 47.71564 -1.29928 35024 ft 421 kts 233°
2026-05-07 05:18 47.67946 -1.36768 35028 ft 421 kts 233°
2026-05-07 05:18 47.64335 -1.43551 35022 ft 421 kts 232°
2026-05-07 05:19 47.60701 -1.50366 35012 ft 421 kts 232°
2026-05-07 05:19 47.56939 -1.57029 35007 ft 422 kts 229°
2026-05-07 05:20 47.52978 -1.63440 35016 ft 422 kts 228°
2026-05-07 05:20 47.48999 -1.69821 35014 ft 422 kts 229°
2026-05-07 05:21 47.43095 -1.79468 35013 ft 422 kts 229°
2026-05-07 05:22 47.39163 -1.85901 35013 ft 421 kts 229°
2026-05-07 05:22 47.35146 -1.92196 35004 ft 422 kts 221°
2026-05-07 05:23 47.30273 -1.97039 35003 ft 423 kts 212°
2026-05-07 05:23 47.25235 -2.01526 35003 ft 423 kts 212°
2026-05-07 05:24 47.20197 -2.06026 35005 ft 423 kts 212°
2026-05-07 05:24 47.15167 -2.10516 35003 ft 423 kts 212°
2026-05-07 05:25 47.10136 -2.14990 35009 ft 423 kts 212°
2026-05-07 05:25 47.05134 -2.19427 35012 ft 422 kts 212°
2026-05-07 05:26 47.00106 -2.23878 35015 ft 422 kts 212°
2026-05-07 05:26 46.95081 -2.28313 35017 ft 422 kts 212°
2026-05-07 05:27 46.90048 -2.32740 35011 ft 422 kts 212°
2026-05-07 05:27 46.85593 -2.38193 35011 ft 418 kts 231°
2026-05-07 05:28 46.82465 -2.45316 35013 ft 417 kts 240°
2026-05-07 05:28 46.79580 -2.52661 35006 ft 417 kts 240°
2026-05-07 05:29 46.76665 -2.59999 35003 ft 418 kts 240°
2026-05-07 05:29 46.73751 -2.67338 35004 ft 418 kts 240°
2026-05-07 05:30 46.70828 -2.74666 35004 ft 418 kts 240°
2026-05-07 05:30 46.67902 -2.81984 35007 ft 418 kts 240°
2026-05-07 05:31 46.64976 -2.89304 35007 ft 419 kts 240°
2026-05-07 05:31 46.62044 -2.96628 35007 ft 419 kts 240°
2026-05-07 05:32 46.59099 -3.03956 35008 ft 419 kts 240°
2026-05-07 05:32 46.55868 -3.10990 35009 ft 419 kts 228°
2026-05-07 05:33 46.51908 -3.16972 34999 ft 419 kts 226°
2026-05-07 05:33 46.47853 -3.23059 35009 ft 419 kts 226°
2026-05-07 05:34 46.43812 -3.29142 35010 ft 419 kts 226°
2026-05-07 05:34 46.39768 -3.35218 35009 ft 419 kts 226°
2026-05-07 05:35 46.35718 -3.41270 35008 ft 418 kts 226°
2026-05-07 05:35 46.31672 -3.47319 35008 ft 418 kts 226°
2026-05-07 05:36 46.27615 -3.53355 35006 ft 418 kts 226°
2026-05-07 05:36 46.23559 -3.59374 35011 ft 418 kts 226°
2026-05-07 05:37 46.19505 -3.65391 35013 ft 418 kts 226°
2026-05-07 05:37 46.15475 -3.71348 35012 ft 418 kts 226°
2026-05-07 05:38 46.11415 -3.77334 35010 ft 417 kts 226°
2026-05-07 05:38 46.07351 -3.83314 35009 ft 417 kts 226°
2026-05-07 05:39 46.03297 -3.89287 35010 ft 417 kts 226°
2026-05-07 05:39 45.99232 -3.95242 35009 ft 417 kts 226°
2026-05-07 05:40 45.95167 -4.01185 35013 ft 417 kts 225°
2026-05-07 05:40 45.91102 -4.07114 35012 ft 417 kts 225°
2026-05-07 05:41 45.87039 -4.13040 35009 ft 416 kts 225°
2026-05-07 05:41 45.82974 -4.18947 35012 ft 416 kts 225°
2026-05-07 05:42 45.78904 -4.24847 35010 ft 416 kts 225°
2026-05-07 05:42 45.74840 -4.30731 35007 ft 415 kts 225°
2026-05-07 05:43 45.70768 -4.36594 35010 ft 415 kts 225°
2026-05-07 05:43 45.66694 -4.42453 35003 ft 415 kts 225°
2026-05-07 05:44 45.62627 -4.48301 35005 ft 415 kts 225°
2026-05-07 05:44 45.58555 -4.54143 35006 ft 415 kts 225°
2026-05-07 05:45 45.54486 -4.59973 35009 ft 415 kts 225°
2026-05-07 05:45 45.51097 -4.64814 35005 ft 415 kts 225°
2026-05-07 05:46 45.46325 -4.71603 35011 ft 414 kts 225°
2026-05-07 05:46 45.42932 -4.76424 35009 ft 414 kts 225°
2026-05-07 05:47 45.38850 -4.82207 35008 ft 414 kts 225°
2026-05-07 05:47 45.34768 -4.87982 35006 ft 414 kts 225°
2026-05-07 05:48 45.30683 -4.93751 35005 ft 414 kts 225°
2026-05-07 05:48 45.26594 -4.99521 34998 ft 414 kts 225°
2026-05-07 05:49 45.22506 -5.05278 35009 ft 414 kts 225°
2026-05-07 05:49 45.18413 -5.11029 35004 ft 414 kts 224°
2026-05-07 05:50 45.14308 -5.16765 35008 ft 415 kts 224°
2026-05-07 05:50 45.10201 -5.22497 35003 ft 415 kts 224°
2026-05-07 05:51 45.06090 -5.28236 35005 ft 415 kts 224°
2026-05-07 05:51 45.01982 -5.33967 35001 ft 415 kts 224°
2026-05-07 05:52 44.97867 -5.39687 35006 ft 415 kts 224°
2026-05-07 05:52 44.93743 -5.45397 35000 ft 415 kts 224°
2026-05-07 05:53 44.89616 -5.51099 34994 ft 415 kts 224°
2026-05-07 05:53 44.85510 -5.56763 34993 ft 415 kts 224°
2026-05-07 05:54 44.81377 -5.62452 34989 ft 415 kts 224°
2026-05-07 05:54 44.77243 -5.68133 34990 ft 415 kts 224°
2026-05-07 05:55 44.73104 -5.73817 34996 ft 416 kts 224°
2026-05-07 05:55 44.68956 -5.79479 34986 ft 416 kts 224°
2026-05-07 05:56 44.65398 -5.85849 34982 ft 417 kts 241°
2026-05-07 05:56 44.63127 -5.93347 34979 ft 418 kts 247°
2026-05-07 05:57 44.60966 -6.00921 34969 ft 418 kts 247°
2026-05-07 05:57 44.58800 -6.08498 34970 ft 418 kts 247°
2026-05-07 05:58 44.56622 -6.16064 34976 ft 418 kts 246°
2026-05-07 05:58 44.54430 -6.23620 34974 ft 418 kts 246°
2026-05-07 05:59 44.52236 -6.31181 34973 ft 419 kts 246°
2026-05-07 05:59 44.50057 -6.38692 34966 ft 418 kts 246°
2026-05-07 06:00 44.47864 -6.46241 34961 ft 418 kts 246°
2026-05-07 06:00 44.45657 -6.53780 34965 ft 419 kts 246°
2026-05-07 06:01 44.43446 -6.61320 34965 ft 419 kts 246°
2026-05-07 06:01 44.41232 -6.68870 34959 ft 419 kts 246°
2026-05-07 06:02 44.39012 -6.76413 34960 ft 420 kts 246°
2026-05-07 06:02 44.36783 -6.83961 34965 ft 420 kts 246°
2026-05-07 06:03 44.34544 -6.91502 34968 ft 420 kts 247°
2026-05-07 06:03 44.32302 -6.99038 34960 ft 420 kts 247°
2026-05-07 06:04 44.30074 -7.06511 34959 ft 420 kts 246°
2026-05-07 06:04 44.27825 -7.14027 34960 ft 420 kts 246°
2026-05-07 06:05 44.25568 -7.21544 34959 ft 420 kts 246°
2026-05-07 06:05 44.23307 -7.29056 34963 ft 420 kts 247°
2026-05-07 06:06 44.21043 -7.36558 34961 ft 420 kts 247°
2026-05-07 06:06 44.18775 -7.44054 34961 ft 420 kts 247°
2026-05-07 06:07 44.16504 -7.51550 34953 ft 420 kts 247°
2026-05-07 06:07 44.14225 -7.59040 34952 ft 420 kts 247°
2026-05-07 06:08 44.11934 -7.66523 34950 ft 421 kts 248°
2026-05-07 06:08 44.09637 -7.74018 34950 ft 421 kts 248°
2026-05-07 06:09 44.07338 -7.81503 34947 ft 421 kts 248°
2026-05-07 06:09 44.05029 -7.88985 34948 ft 421 kts 248°
2026-05-07 06:10 44.02722 -7.96457 34949 ft 421 kts 248°
2026-05-07 06:10 44.00410 -8.03932 34950 ft 421 kts 248°
2026-05-07 06:11 43.98088 -8.11393 34954 ft 421 kts 248°
2026-05-07 06:11 43.95762 -8.18857 34953 ft 421 kts 248°
2026-05-07 06:12 43.93437 -8.26310 34952 ft 421 kts 248°
2026-05-07 06:12 43.91102 -8.33760 34944 ft 421 kts 248°
2026-05-07 06:13 43.88761 -8.41214 34944 ft 422 kts 248°
2026-05-07 06:13 43.86424 -8.48611 34944 ft 422 kts 248°
2026-05-07 06:14 43.84068 -8.56056 34945 ft 422 kts 248°
2026-05-07 06:14 43.81708 -8.63498 34942 ft 422 kts 248°
2026-05-07 06:15 43.79347 -8.70940 34946 ft 422 kts 248°
2026-05-07 06:15 43.76979 -8.78374 34937 ft 423 kts 249°
2026-05-07 06:16 43.74600 -8.85817 34942 ft 423 kts 249°
2026-05-07 06:16 43.72215 -8.93252 34944 ft 423 kts 249°
2026-05-07 06:17 43.69825 -9.00675 34941 ft 423 kts 249°
2026-05-07 06:17 43.67432 -9.08100 34942 ft 423 kts 249°
2026-05-07 06:18 43.65033 -9.15521 34932 ft 423 kts 250°
2026-05-07 06:18 43.62628 -9.22942 34939 ft 423 kts 250°
2026-05-07 06:19 43.60216 -9.30348 34938 ft 423 kts 250°
2026-05-07 06:19 43.57801 -9.37752 34944 ft 423 kts 250°
2026-05-07 06:20 43.55384 -9.45152 34952 ft 423 kts 250°
2026-05-07 06:20 43.52963 -9.52540 34959 ft 423 kts 250°
2026-05-07 06:21 43.50539 -9.59909 34963 ft 422 kts 250°
2026-05-07 06:21 43.47566 -9.66839 34966 ft 428 kts 235°
2026-05-07 06:22 43.43799 -9.73194 34972 ft 429 kts 235°
2026-05-07 06:22 43.38117 -9.82683 34954 ft 428 kts 235°
2026-05-07 06:23 43.34330 -9.88995 34960 ft 428 kts 235°
2026-05-07 06:23 43.30552 -9.95302 34963 ft 427 kts 235°
2026-05-07 06:24 43.26778 -10.01584 34964 ft 426 kts 235°
2026-05-07 06:24 43.22996 -10.07843 34962 ft 426 kts 235°
2026-05-07 06:25 43.19221 -10.14092 34960 ft 425 kts 235°
2026-05-07 06:25 43.15450 -10.20337 34949 ft 425 kts 235°
2026-05-07 06:26 43.11673 -10.26582 34938 ft 425 kts 236°
2026-05-07 06:26 43.07890 -10.32805 34946 ft 425 kts 236°
2026-05-07 06:27 43.04103 -10.39016 34948 ft 425 kts 236°
2026-05-07 06:27 43.00314 -10.45219 34951 ft 425 kts 236°
2026-05-07 06:28 42.96526 -10.51417 34951 ft 425 kts 235°
2026-05-07 06:28 42.92728 -10.57611 34933 ft 425 kts 236°
2026-05-07 06:29 42.88937 -10.63796 34952 ft 425 kts 236°
2026-05-07 06:29 42.85137 -10.69972 34962 ft 425 kts 236°
2026-05-07 06:30 42.81337 -10.76134 34966 ft 425 kts 236°
2026-05-07 06:30 42.77529 -10.82289 34970 ft 425 kts 236°
2026-05-07 06:31 42.73721 -10.88428 34979 ft 424 kts 236°
2026-05-07 06:31 42.69912 -10.94557 34951 ft 424 kts 237°
2026-05-07 06:32 42.66756 -10.99632 34978 ft 422 kts 237°
2026-05-07 06:32 42.62354 -11.06706 34995 ft 421 kts 237°
2026-05-07 06:33 42.58576 -11.12764 34983 ft 420 kts 236°
2026-05-07 06:33 42.55411 -11.17815 34988 ft 419 kts 236°
2026-05-07 06:34 42.51633 -11.23836 34986 ft 419 kts 236°
2026-05-07 06:34 42.47855 -11.29851 34985 ft 419 kts 236°
2026-05-07 06:35 42.44080 -11.35849 34958 ft 418 kts 236°
2026-05-07 06:35 42.40314 -11.41826 34969 ft 417 kts 236°
2026-05-07 06:36 42.36551 -11.47786 34975 ft 416 kts 236°
2026-05-07 06:36 42.32783 -11.53727 34976 ft 416 kts 236°
2026-05-07 06:37 42.29036 -11.59623 34975 ft 416 kts 236°
2026-05-07 06:37 42.25273 -11.65549 34974 ft 416 kts 236°
2026-05-07 06:38 42.21506 -11.71464 34976 ft 416 kts 236°
2026-05-07 06:38 42.17732 -11.77375 34970 ft 416 kts 236°
2026-05-07 06:39 42.13956 -11.83270 34976 ft 415 kts 236°
2026-05-07 06:39 42.10182 -11.89163 34973 ft 415 kts 236°
2026-05-07 06:40 42.06402 -11.95045 34971 ft 415 kts 236°
2026-05-07 06:40 42.02612 -12.00922 34971 ft 415 kts 236°
2026-05-07 06:41 41.98831 -12.06790 34966 ft 415 kts 235°
2026-05-07 06:41 41.95057 -12.12642 34968 ft 414 kts 235°
2026-05-07 06:42 41.91284 -12.18470 34978 ft 413 kts 235°
2026-05-07 06:42 41.87514 -12.24282 34980 ft 413 kts 235°
2026-05-07 06:43 41.83748 -12.30084 34978 ft 412 kts 235°
2026-05-07 06:43 41.79977 -12.35879 34979 ft 412 kts 235°
2026-05-07 06:44 41.76205 -12.41656 34967 ft 412 kts 235°
2026-05-07 06:44 41.72438 -12.47417 34962 ft 411 kts 235°
2026-05-07 06:45 41.68686 -12.53159 34983 ft 409 kts 235°
2026-05-07 06:45 41.64936 -12.58877 34996 ft 409 kts 235°
2026-05-07 06:46 41.61208 -12.64543 34990 ft 408 kts 235°
2026-05-07 06:46 41.57463 -12.70231 34983 ft 408 kts 235°
2026-05-07 06:47 41.53714 -12.75904 34983 ft 407 kts 235°
2026-05-07 06:47 41.49966 -12.81564 34987 ft 407 kts 234°
2026-05-07 06:48 41.46225 -12.87217 34982 ft 406 kts 235°
2026-05-07 06:48 41.42487 -12.92852 34983 ft 405 kts 234°
2026-05-07 06:49 41.38748 -12.98465 34984 ft 405 kts 234°
2026-05-07 06:49 41.35030 -13.04035 34982 ft 405 kts 234°
2026-05-07 06:50 41.31291 -13.09636 34976 ft 404 kts 234°
2026-05-07 06:50 41.27560 -13.15227 34969 ft 404 kts 234°
2026-05-07 06:51 41.23829 -13.20798 34979 ft 403 kts 234°
2026-05-07 06:51 41.20100 -13.26358 34973 ft 402 kts 234°
2026-05-07 06:52 41.16374 -13.31894 34975 ft 402 kts 234°
2026-05-07 06:52 41.12646 -13.37413 34978 ft 401 kts 234°
2026-05-07 06:53 41.08922 -13.42925 34976 ft 401 kts 234°
2026-05-07 06:53 41.05201 -13.48432 34976 ft 401 kts 234°
2026-05-07 06:54 41.01484 -13.53934 34972 ft 401 kts 233°
2026-05-07 06:54 40.97761 -13.59423 34972 ft 400 kts 233°
2026-05-07 06:55 40.94038 -13.64888 34970 ft 399 kts 233°
2026-05-07 06:55 40.90323 -13.70344 34975 ft 399 kts 233°
2026-05-07 06:56 40.86609 -13.75786 34974 ft 399 kts 233°
2026-05-07 06:56 40.82897 -13.81219 34975 ft 398 kts 233°
2026-05-07 06:57 40.79210 -13.86616 34973 ft 398 kts 233°
2026-05-07 06:57 40.75905 -13.92251 34974 ft 387 kts 250°
2026-05-07 06:58 40.74126 -13.98905 34974 ft 384 kts 254°
2026-05-07 06:58 40.72425 -14.05535 34972 ft 384 kts 254°
2026-05-07 06:59 40.70705 -14.12207 34972 ft 385 kts 254°
2026-05-07 06:59 40.68975 -14.18874 34971 ft 385 kts 254°
2026-05-07 07:00 40.67248 -14.25541 34953 ft 384 kts 253°
2026-05-07 07:00 40.65516 -14.32194 34963 ft 384 kts 253°
2026-05-07 07:01 40.63781 -14.38846 34969 ft 384 kts 253°
2026-05-07 07:01 40.62048 -14.45483 34971 ft 383 kts 253°
2026-05-07 07:02 40.60313 -14.52123 34971 ft 383 kts 253°
2026-05-07 07:02 40.58569 -14.58755 34975 ft 383 kts 252°
2026-05-07 07:03 40.56818 -14.65371 34975 ft 383 kts 252°
2026-05-07 07:03 40.55067 -14.71986 34977 ft 383 kts 252°
2026-05-07 07:04 40.53315 -14.78588 34975 ft 382 kts 252°
2026-05-07 07:04 40.51568 -14.85143 34978 ft 382 kts 252°
2026-05-07 07:05 40.49812 -14.91735 34977 ft 382 kts 252°
2026-05-07 07:05 40.49028 -14.94678 34975 ft 382 kts 252°
2026-05-07 07:06 40.47267 -15.01253 34984 ft 381 kts 252°
2026-05-07 07:06 40.45512 -15.07814 34987 ft 380 kts 252°
2026-05-07 07:07 40.43751 -15.14367 34989 ft 380 kts 252°
2026-05-07 07:07 40.41990 -15.20900 34986 ft 380 kts 252°
2026-05-07 07:08 40.40223 -15.27432 34982 ft 380 kts 252°
2026-05-07 07:08 40.38455 -15.33955 34982 ft 379 kts 252°
2026-05-07 07:09 40.36680 -15.40472 34976 ft 379 kts 251°
2026-05-07 07:09 40.34904 -15.46985 34977 ft 379 kts 251°
2026-05-07 07:10 40.33130 -15.53498 34978 ft 379 kts 251°
2026-05-07 07:10 40.31343 -15.60004 34976 ft 379 kts 251°
2026-05-07 07:11 40.29573 -15.66465 34985 ft 379 kts 251°
2026-05-07 07:11 40.27774 -15.72997 34984 ft 379 kts 251°
2026-05-07 07:12 40.25998 -15.79441 34984 ft 378 kts 251°
2026-05-07 07:12 40.24213 -15.85907 34971 ft 377 kts 251°
2026-05-07 07:13 40.22421 -15.92354 34979 ft 377 kts 251°
2026-05-07 07:13 40.20630 -15.98793 34979 ft 376 kts 251°
2026-05-07 07:14 40.18843 -16.05218 34990 ft 376 kts 250°
2026-05-07 07:14 40.17051 -16.11639 34985 ft 376 kts 250°
2026-05-07 07:15 40.15252 -16.18053 34982 ft 376 kts 250°
2026-05-07 07:15 40.13449 -16.24464 34980 ft 376 kts 250°
2026-05-07 07:16 40.11643 -16.30879 34978 ft 376 kts 250°
2026-05-07 07:16 40.09831 -16.37281 34980 ft 376 kts 249°
2026-05-07 07:17 40.08019 -16.43683 34977 ft 376 kts 249°
2026-05-07 07:17 40.06211 -16.50087 34975 ft 376 kts 249°
2026-05-07 07:18 40.04396 -16.56493 34978 ft 376 kts 249°
2026-05-07 07:18 40.02573 -16.62888 34978 ft 376 kts 249°
2026-05-07 07:19 40.00742 -16.69278 34976 ft 376 kts 249°
2026-05-07 07:19 39.98909 -16.75668 34976 ft 376 kts 249°
2026-05-07 07:20 39.97077 -16.82059 34974 ft 376 kts 249°
2026-05-07 07:20 39.95551 -16.87373 34974 ft 376 kts 249°
2026-05-07 07:21 39.93705 -16.93758 34977 ft 377 kts 248°
2026-05-07 07:21 39.91849 -17.00136 34976 ft 377 kts 248°
2026-05-07 07:22 39.89998 -17.06518 34983 ft 377 kts 248°
2026-05-07 07:22 39.88143 -17.12905 34978 ft 377 kts 248°
2026-05-07 07:23 39.86286 -17.19286 34974 ft 377 kts 248°
2026-05-07 07:23 39.84426 -17.25667 34974 ft 377 kts 248°
2026-05-07 07:24 39.82558 -17.32044 34973 ft 377 kts 248°
2026-05-07 07:24 39.80686 -17.38421 34955 ft 377 kts 248°
2026-05-07 07:25 39.77879 -17.47969 34978 ft 377 kts 247°
2026-05-07 07:26 39.75999 -17.54329 34977 ft 377 kts 247°
2026-05-07 07:26 39.74121 -17.60698 34972 ft 377 kts 247°
2026-05-07 07:27 39.72230 -17.67055 34972 ft 377 kts 247°
2026-05-07 07:27 39.70342 -17.73411 34973 ft 377 kts 247°
2026-05-07 07:28 39.68453 -17.79763 34986 ft 377 kts 246°
2026-05-07 07:28 39.66559 -17.86109 34981 ft 377 kts 246°
2026-05-07 07:29 39.64651 -17.92453 34976 ft 377 kts 246°
2026-05-07 07:29 39.62746 -17.98791 34975 ft 377 kts 246°
2026-05-07 07:30 39.60840 -18.05127 34975 ft 377 kts 246°
2026-05-07 07:30 39.58935 -18.11463 34996 ft 377 kts 246°
2026-05-07 07:31 39.57024 -18.17796 34986 ft 377 kts 246°
2026-05-07 07:31 39.55117 -18.24089 34983 ft 377 kts 246°
2026-05-07 07:32 39.53180 -18.30458 34983 ft 378 kts 246°
2026-05-07 07:32 39.51254 -18.36783 34982 ft 377 kts 245°
2026-05-07 07:33 39.49329 -18.43102 34980 ft 377 kts 246°
2026-05-07 07:33 39.47404 -18.49418 34993 ft 377 kts 246°
2026-05-07 07:34 39.45484 -18.55685 34990 ft 376 kts 245°
2026-05-07 07:34 39.43547 -18.61973 34986 ft 376 kts 245°
2026-05-07 07:35 39.41607 -18.68251 34985 ft 376 kts 245°
2026-05-07 07:35 39.39668 -18.74520 34977 ft 376 kts 245°
2026-05-07 07:36 39.37734 -18.80794 34970 ft 375 kts 245°
2026-05-07 07:36 39.35798 -18.87056 34968 ft 375 kts 245°
2026-05-07 07:37 39.33856 -18.93303 34959 ft 375 kts 245°
2026-05-07 07:37 39.31910 -18.99534 34957 ft 374 kts 245°
2026-05-07 07:38 39.29966 -19.05754 34961 ft 373 kts 245°
2026-05-07 07:38 39.28017 -19.11966 34972 ft 373 kts 245°
2026-05-07 07:39 39.26071 -19.18163 34981 ft 373 kts 245°
2026-05-07 07:39 39.24251 -19.24426 34974 ft 374 kts 250°
2026-05-07 07:40 39.22820 -19.30885 34971 ft 374 kts 251°
2026-05-07 07:40 39.21454 -19.37364 34962 ft 374 kts 251°
2026-05-07 07:41 39.20080 -19.43838 34960 ft 374 kts 251°
2026-05-07 07:41 39.18684 -19.50305 34957 ft 375 kts 251°
2026-05-07 07:42 39.17271 -19.56781 34950 ft 376 kts 250°
2026-05-07 07:42 39.15863 -19.63225 34952 ft 376 kts 250°
2026-05-07 07:43 39.14433 -19.69754 34951 ft 376 kts 250°
2026-05-07 07:43 39.13006 -19.76236 34951 ft 376 kts 250°
2026-05-07 07:44 39.11574 -19.82718 34966 ft 377 kts 251°
2026-05-07 07:44 39.10140 -19.89221 34948 ft 378 kts 251°
2026-05-07 07:45 39.08711 -19.95695 34939 ft 379 kts 250°
2026-05-07 07:45 39.07263 -20.02223 34937 ft 379 kts 250°
2026-05-07 07:46 39.05805 -20.08746 34935 ft 380 kts 250°
2026-05-07 07:46 39.04342 -20.15272 34951 ft 380 kts 251°
2026-05-07 07:47 39.02874 -20.21818 34939 ft 382 kts 250°
2026-05-07 07:47 39.01395 -20.28388 34929 ft 383 kts 250°
2026-05-07 07:48 38.99912 -20.34963 34932 ft 383 kts 250°
2026-05-07 07:48 38.98426 -20.41542 34929 ft 383 kts 250°
2026-05-07 07:49 38.96933 -20.48123 34946 ft 384 kts 251°
2026-05-07 07:49 38.95433 -20.54722 34932 ft 386 kts 251°
2026-05-07 07:50 38.93921 -20.61352 34917 ft 387 kts 251°
2026-05-07 07:50 38.92397 -20.67987 34919 ft 388 kts 251°
2026-05-07 07:51 38.90877 -20.74634 34920 ft 388 kts 251°
2026-05-07 07:51 38.89349 -20.81291 34937 ft 388 kts 251°
2026-05-07 07:52 38.87812 -20.87947 34919 ft 390 kts 251°
2026-05-07 07:52 38.86266 -20.94624 34916 ft 391 kts 251°
2026-05-07 07:53 38.84665 -21.01406 34936 ft 399 kts 251°
2026-05-07 07:53 38.83089 -21.08167 34939 ft 394 kts 251°
2026-05-07 07:54 38.81527 -21.14901 34939 ft 394 kts 252°
2026-05-07 07:54 38.79962 -21.21613 34931 ft 396 kts 251°
2026-05-07 07:55 38.78368 -21.28380 34929 ft 397 kts 251°
2026-05-07 07:55 38.76770 -21.35138 34926 ft 396 kts 251°
2026-05-07 07:56 38.75176 -21.41902 34920 ft 396 kts 251°
2026-05-07 07:56 38.73583 -21.48657 34927 ft 396 kts 252°
2026-05-07 07:57 38.71976 -21.55413 34914 ft 397 kts 252°
2026-05-07 07:57 38.70368 -21.62178 34910 ft 398 kts 252°
2026-05-07 07:58 38.68751 -21.68953 34908 ft 398 kts 252°
2026-05-07 07:58 38.67129 -21.75719 34907 ft 398 kts 252°
2026-05-07 07:59 38.65501 -21.82492 34909 ft 398 kts 252°
2026-05-07 07:59 38.63866 -21.89261 34905 ft 399 kts 252°
2026-05-07 08:00 38.62229 -21.96038 34905 ft 399 kts 252°
2026-05-07 08:00 38.60587 -22.02823 34907 ft 399 kts 252°
2026-05-07 08:01 38.58946 -22.09597 34908 ft 399 kts 252°
2026-05-07 08:01 38.57298 -22.16369 34906 ft 399 kts 252°
2026-05-07 08:02 38.55642 -22.23141 34901 ft 399 kts 252°
2026-05-07 08:02 38.53978 -22.29900 34899 ft 399 kts 252°
2026-05-07 08:03 38.52320 -22.36660 34896 ft 399 kts 252°
2026-05-07 08:03 38.50659 -22.43417 34897 ft 399 kts 252°
2026-05-07 08:04 38.48988 -22.50184 34893 ft 399 kts 252°
2026-05-07 08:04 38.47597 -22.55799 34891 ft 400 kts 252°
2026-05-07 08:05 38.45915 -22.62564 34889 ft 400 kts 252°
2026-05-07 08:05 38.44230 -22.69336 34889 ft 400 kts 252°
2026-05-07 08:06 38.44196 -22.69471 34890 ft 400 kts 252°